RYR13CN EGCC-LIMC

Flight info

Callsign RYR13CN
Flight time 1h 49m
Altitude 23000
Route LISTO L612 HON/N0443F370 L15 BIG UL9 KONAN DCT KOK DCT CIV DCT SUTAL DCT GTQ DCT OBORN DCT DEVDI DCT BASGO/N0402F290 Z424 AKASU/N0341F190 Z424 RIXUV
Aircraft B738/M-SDE2E3FGHIRWXY/LB1

Departure

Time 2026-05-04 19:45
Airport Manchester Airport (EGCC)

Arrival

Time 2026-05-04 21:34
Airport Milan Malpensa International Airport (LIMC)
Time Latitude Longitude Altitude Speed Heading
2026-05-04 18:49 53.36050 -2.27138 238 ft 0 kts 72°
2026-05-04 19:32 53.36046 -2.27158 239 ft 2 kts 67°
2026-05-04 19:32 53.36039 -2.27184 239 ft 2 kts 62°
2026-05-04 19:33 53.36030 -2.27207 239 ft 2 kts 52°
2026-05-04 19:33 53.36019 -2.27227 240 ft 2 kts 34°
2026-05-04 19:33 53.36004 -2.27239 240 ft 2 kts 12°
2026-05-04 19:33 53.35988 -2.27241 240 ft 2 kts 357°
2026-05-04 19:34 53.35982 -2.27241 240 ft 0 kts 357°
2026-05-04 19:34 53.35981 -2.27241 240 ft 0 kts 357°
2026-05-04 19:37 53.35983 -2.27237 240 ft 1 kts 26°
2026-05-04 19:37 53.35988 -2.27237 240 ft 0 kts
2026-05-04 19:39 53.35995 -2.27242 240 ft 3 kts 333°
2026-05-04 19:39 53.36005 -2.27299 241 ft 6 kts 249°
2026-05-04 19:39 53.35972 -2.27320 241 ft 4 kts 177°
2026-05-04 19:40 53.35949 -2.27319 241 ft 6 kts 178°
2026-05-04 19:40 53.35881 -2.27315 241 ft 12 kts 179°
2026-05-04 19:40 53.35799 -2.27308 241 ft 11 kts 164°
2026-05-04 19:40 53.35747 -2.27222 240 ft 11 kts 100°
2026-05-04 19:41 53.35786 -2.27118 238 ft 11 kts 52°
2026-05-04 19:41 53.35829 -2.27019 237 ft 11 kts 59°
2026-05-04 19:41 53.35865 -2.26911 236 ft 11 kts 52°
2026-05-04 19:41 53.35926 -2.26773 236 ft 19 kts 55°
2026-05-04 19:42 53.36014 -2.26584 230 ft 21 kts 51°
2026-05-04 19:42 53.36103 -2.26398 227 ft 20 kts 51°
2026-05-04 19:42 53.36190 -2.26249 225 ft 16 kts 34°
2026-05-04 19:42 53.36263 -2.26113 223 ft 14 kts 62°
2026-05-04 19:43 53.36276 -2.25957 221 ft 13 kts 71°
2026-05-04 19:43 53.36282 -2.25813 220 ft 13 kts 114°
2026-05-04 19:43 53.36237 -2.25757 221 ft 11 kts 168°
2026-05-04 19:43 53.36199 -2.25788 221 ft 0 kts 227°
2026-05-04 19:44 53.36199 -2.25789 221 ft 1 kts 227°
2026-05-04 19:44 53.36156 -2.25875 222 ft 34 kts 231°
2026-05-04 19:44 53.35851 -2.26508 233 ft 103 kts 231°
2026-05-04 19:44 53.35281 -2.27684 252 ft 159 kts 233°
2026-05-04 19:45 53.34553 -2.29241 746 ft 170 kts 233°
2026-05-04 19:45 53.33796 -2.30796 1586 ft 173 kts 235°
2026-05-04 19:45 53.33036 -2.32385 2263 ft 180 kts 235°
2026-05-04 19:45 53.32380 -2.34291 2563 ft 201 kts 259°
2026-05-04 19:46 53.32356 -2.36680 2927 ft 210 kts 277°
2026-05-04 19:46 53.32487 -2.39171 3374 ft 222 kts 273°
2026-05-04 19:46 53.32118 -2.41806 3528 ft 251 kts 238°
2026-05-04 19:46 53.30777 -2.43719 4186 ft 261 kts 205°
2026-05-04 19:47 53.29024 -2.44630 4796 ft 266 kts 195°
2026-05-04 19:47 53.27196 -2.44921 4970 ft 267 kts 170°
2026-05-04 19:47 53.25496 -2.43720 5014 ft 270 kts 151°
2026-05-04 19:47 53.23840 -2.42185 5004 ft 273 kts 152°
2026-05-04 19:48 53.22195 -2.40704 4997 ft 271 kts 152°
2026-05-04 19:48 53.20536 -2.39223 4997 ft 270 kts 152°
2026-05-04 19:48 53.18879 -2.37757 4993 ft 269 kts 152°
2026-05-04 19:48 53.17225 -2.36304 4989 ft 269 kts 152°
2026-05-04 19:49 53.15572 -2.34855 4991 ft 269 kts 153°
2026-05-04 19:49 53.13916 -2.33406 5003 ft 269 kts 153°
2026-05-04 19:49 53.12237 -2.31939 5216 ft 275 kts 153°
2026-05-04 19:49 53.10540 -2.30458 6028 ft 276 kts 153°
2026-05-04 19:50 53.08810 -2.28949 6795 ft 278 kts 153°
2026-05-04 19:50 53.07090 -2.27449 7531 ft 281 kts 153°
2026-05-04 19:50 53.05348 -2.25932 8253 ft 284 kts 153°
2026-05-04 19:50 53.03588 -2.24401 8975 ft 288 kts 153°
2026-05-04 19:51 53.01802 -2.22850 9695 ft 291 kts 153°
2026-05-04 19:51 52.99996 -2.21281 10346 ft 297 kts 153°
2026-05-04 19:51 52.98101 -2.19641 10545 ft 318 kts 153°
2026-05-04 19:51 52.96075 -2.17889 10774 ft 336 kts 153°
2026-05-04 19:52 52.93976 -2.16073 11314 ft 343 kts 153°
2026-05-04 19:52 52.91846 -2.14231 11994 ft 346 kts 153°
2026-05-04 19:52 52.89699 -2.12377 12695 ft 350 kts 153°
2026-05-04 19:52 52.87533 -2.10507 13393 ft 354 kts 153°
2026-05-04 19:53 52.85338 -2.08616 14068 ft 357 kts 153°
2026-05-04 19:53 52.83127 -2.06713 14740 ft 360 kts 153°
2026-05-04 19:53 52.80895 -2.04794 15416 ft 363 kts 154°
2026-05-04 19:53 52.78645 -2.02861 16111 ft 365 kts 154°
2026-05-04 19:54 52.76380 -2.00917 16784 ft 369 kts 154°
2026-05-04 19:54 52.74089 -1.98955 17404 ft 373 kts 154°
2026-05-04 19:54 52.71783 -1.96981 18091 ft 375 kts 154°
2026-05-04 19:54 52.69450 -1.94988 18688 ft 379 kts 154°
2026-05-04 19:55 52.67104 -1.92985 19264 ft 381 kts 155°
2026-05-04 19:55 52.64741 -1.90970 19849 ft 384 kts 155°
2026-05-04 19:55 52.62364 -1.88946 20414 ft 386 kts 155°
2026-05-04 19:55 52.59969 -1.86909 20984 ft 389 kts 155°
2026-05-04 19:56 52.57554 -1.84859 21523 ft 392 kts 156°
2026-05-04 19:56 52.55125 -1.82798 22046 ft 395 kts 156°
2026-05-04 19:56 52.52674 -1.80721 22588 ft 398 kts 156°
2026-05-04 19:56 52.50206 -1.78631 23157 ft 399 kts 156°
2026-05-04 19:57 52.47746 -1.76550 23756 ft 399 kts 156°
2026-05-04 19:57 52.45265 -1.74455 24181 ft 402 kts 156°
2026-05-04 19:57 52.42772 -1.72351 24577 ft 405 kts 156°
2026-05-04 19:57 52.40257 -1.70233 24971 ft 408 kts 155°
2026-05-04 19:58 52.37730 -1.68099 25382 ft 410 kts 154°
2026-05-04 19:58 52.35319 -1.65548 25774 ft 416 kts 144°
2026-05-04 19:58 52.33184 -1.62310 26186 ft 421 kts 134°
2026-05-04 19:58 52.31385 -1.58515 26671 ft 424 kts 126°
2026-05-04 19:59 52.29951 -1.54286 27098 ft 427 kts 116°
2026-05-04 19:59 52.28759 -1.49833 27503 ft 430 kts 115°
2026-05-04 19:59 52.27595 -1.45322 27805 ft 434 kts 115°
2026-05-04 19:59 52.26426 -1.40756 28071 ft 438 kts 115°
2026-05-04 20:00 52.25231 -1.36111 28453 ft 439 kts 115°
2026-05-04 20:00 52.24049 -1.31562 28856 ft 440 kts 115°
2026-05-04 20:00 52.22841 -1.26960 29216 ft 442 kts 115°
2026-05-04 20:00 52.21623 -1.22350 29539 ft 444 kts 115°
2026-05-04 20:01 52.20393 -1.17723 29857 ft 446 kts 115°
2026-05-04 20:01 52.19151 -1.13067 30165 ft 448 kts 115°
2026-05-04 20:01 52.17904 -1.08407 30432 ft 450 kts 115°
2026-05-04 20:01 52.16649 -1.03726 30703 ft 451 kts 115°
2026-05-04 20:02 52.15489 -0.99408 30963 ft 452 kts 115°
2026-05-04 20:02 52.14230 -0.94730 31296 ft 451 kts 116°
2026-05-04 20:02 52.12971 -0.90058 31647 ft 451 kts 116°
2026-05-04 20:02 52.11712 -0.85398 32007 ft 449 kts 116°
2026-05-04 20:03 52.10454 -0.80748 32372 ft 448 kts 116°
2026-05-04 20:03 52.09198 -0.76116 32708 ft 447 kts 116°
2026-05-04 20:03 52.07943 -0.71497 33030 ft 447 kts 116°
2026-05-04 20:03 52.06690 -0.66897 33372 ft 446 kts 116°
2026-05-04 20:04 52.05436 -0.62298 33713 ft 445 kts 116°
2026-05-04 20:04 52.04182 -0.57712 34044 ft 444 kts 116°
2026-05-04 20:04 52.02933 -0.53153 34356 ft 441 kts 116°
2026-05-04 20:04 52.01683 -0.48599 34600 ft 441 kts 116°
2026-05-04 20:05 52.00433 -0.44055 34792 ft 442 kts 116°
2026-05-04 20:05 51.99181 -0.39511 34969 ft 443 kts 116°
2026-05-04 20:05 51.97922 -0.34952 35210 ft 443 kts 116°
2026-05-04 20:05 51.96663 -0.30399 35445 ft 442 kts 116°
2026-05-04 20:06 51.95401 -0.25846 35629 ft 443 kts 116°
2026-05-04 20:06 51.94137 -0.21294 35836 ft 443 kts 116°
2026-05-04 20:06 51.92868 -0.16735 36050 ft 443 kts 116°
2026-05-04 20:06 51.91586 -0.12135 36260 ft 443 kts 116°
2026-05-04 20:07 51.90313 -0.07580 36455 ft 444 kts 116°
2026-05-04 20:07 51.89036 -0.03018 36645 ft 444 kts 116°
2026-05-04 20:07 51.87845 0.01231 36813 ft 444 kts 116°
2026-05-04 20:08 51.85289 0.10318 37019 ft 448 kts 116°
2026-05-04 20:08 51.82675 0.19578 37042 ft 450 kts 116°
2026-05-04 20:09 51.80100 0.28666 37034 ft 445 kts 116°
2026-05-04 20:09 51.77525 0.37719 37045 ft 442 kts 116°
2026-05-04 20:10 51.74952 0.46727 37044 ft 441 kts 116°
2026-05-04 20:10 51.72382 0.55690 37023 ft 440 kts 117°
2026-05-04 20:11 51.69801 0.64657 37032 ft 441 kts 117°
2026-05-04 20:11 51.67208 0.73632 37030 ft 443 kts 117°
2026-05-04 20:12 51.64591 0.82656 37028 ft 446 kts 117°
2026-05-04 20:12 51.61963 0.91686 37029 ft 448 kts 117°
2026-05-04 20:13 51.59426 1.00369 37031 ft 450 kts 117°
2026-05-04 20:13 51.56753 1.09482 37041 ft 451 kts 117°
2026-05-04 20:14 51.54051 1.18665 37035 ft 452 kts 117°
2026-05-04 20:14 51.51373 1.27726 37031 ft 452 kts 117°
2026-05-04 20:15 51.48659 1.36880 37030 ft 451 kts 117°
2026-05-04 20:15 51.45959 1.45945 37122 ft 452 kts 118°
2026-05-04 20:15 51.44603 1.50487 37329 ft 451 kts 118°
2026-05-04 20:16 51.43247 1.55021 37569 ft 450 kts 118°
2026-05-04 20:16 51.41897 1.59526 37774 ft 449 kts 118°
2026-05-04 20:16 51.40544 1.64031 37934 ft 449 kts 118°
2026-05-04 20:16 51.39186 1.68544 38077 ft 450 kts 118°
2026-05-04 20:17 51.37826 1.73055 38245 ft 450 kts 118°
2026-05-04 20:17 51.36470 1.77549 38410 ft 449 kts 118°
2026-05-04 20:17 51.35108 1.82050 38569 ft 449 kts 118°
2026-05-04 20:17 51.33743 1.86552 38705 ft 450 kts 118°
2026-05-04 20:18 51.32378 1.91049 38818 ft 450 kts 118°
2026-05-04 20:18 51.29647 2.00019 38984 ft 448 kts 118°
2026-05-04 20:19 51.26992 2.08707 39008 ft 451 kts 118°
2026-05-04 20:19 51.24226 2.17722 39013 ft 453 kts 118°
2026-05-04 20:20 51.21439 2.26776 39020 ft 455 kts 118°
2026-05-04 20:20 51.18641 2.35834 39005 ft 456 kts 118°
2026-05-04 20:21 51.15833 2.44890 39007 ft 456 kts 118°
2026-05-04 20:21 51.12084 2.56936 38992 ft 456 kts 118°
2026-05-04 20:22 51.09235 2.65918 38987 ft 454 kts 122°
2026-05-04 20:22 51.05766 2.74241 38987 ft 450 kts 128°
2026-05-04 20:23 51.02150 2.82336 39013 ft 449 kts 128°
2026-05-04 20:23 50.98574 2.90415 39010 ft 448 kts 127°
2026-05-04 20:24 50.95024 2.98523 39001 ft 447 kts 127°
2026-05-04 20:24 50.91600 3.06354 38989 ft 446 kts 127°
2026-05-04 20:25 50.88059 3.14431 38983 ft 446 kts 127°
2026-05-04 20:25 50.84519 3.22476 38979 ft 446 kts 127°
2026-05-04 20:26 50.80972 3.30511 38975 ft 445 kts 128°
2026-05-04 20:26 50.77417 3.38538 38975 ft 446 kts 128°
2026-05-04 20:27 50.73858 3.46552 38977 ft 446 kts 128°
2026-05-04 20:27 50.70290 3.54560 38974 ft 446 kts 128°
2026-05-04 20:28 50.66712 3.62566 38975 ft 447 kts 128°
2026-05-04 20:28 50.63128 3.70563 38970 ft 447 kts 128°
2026-05-04 20:29 50.59531 3.78568 38957 ft 447 kts 128°
2026-05-04 20:29 50.55960 3.86580 38962 ft 448 kts 126°
2026-05-04 20:30 50.52562 3.94791 38971 ft 449 kts 125°
2026-05-04 20:30 50.49280 4.02838 38972 ft 450 kts 125°
2026-05-04 20:31 50.45880 4.11090 38975 ft 450 kts 126°
2026-05-04 20:31 50.42453 4.19325 38967 ft 451 kts 126°
2026-05-04 20:32 50.39008 4.27560 38968 ft 452 kts 126°
2026-05-04 20:32 50.35556 4.35783 38967 ft 452 kts 126°
2026-05-04 20:33 50.32101 4.43992 38960 ft 452 kts 126°
2026-05-04 20:33 50.28638 4.52193 38967 ft 452 kts 126°
2026-05-04 20:34 50.25170 4.60382 38960 ft 451 kts 126°
2026-05-04 20:34 50.21704 4.68542 38967 ft 450 kts 126°
2026-05-04 20:35 50.18237 4.76676 38965 ft 450 kts 127°
2026-05-04 20:35 50.14767 4.84795 38967 ft 449 kts 127°
2026-05-04 20:36 50.11297 4.92887 38962 ft 449 kts 127°
2026-05-04 20:36 50.07936 5.00702 38958 ft 448 kts 127°
2026-05-04 20:37 50.04465 5.08748 38952 ft 448 kts 127°
2026-05-04 20:37 50.00993 5.16773 38966 ft 447 kts 127°
2026-05-04 20:38 49.97523 5.24767 38963 ft 447 kts 127°
2026-05-04 20:38 49.94039 5.32770 38964 ft 447 kts 127°
2026-05-04 20:39 49.90555 5.40748 38966 ft 447 kts 127°
2026-05-04 20:39 49.87065 5.48718 38954 ft 447 kts 127°
2026-05-04 20:40 49.83570 5.56675 38955 ft 446 kts 127°
2026-05-04 20:40 49.80067 5.64624 38967 ft 447 kts 127°
2026-05-04 20:41 49.76554 5.72573 38965 ft 448 kts 128°
2026-05-04 20:41 49.73034 5.80516 38964 ft 449 kts 128°
2026-05-04 20:42 49.69500 5.88464 38960 ft 450 kts 128°
2026-05-04 20:42 49.65976 5.96369 38963 ft 450 kts 128°
2026-05-04 20:43 49.62510 6.04119 38971 ft 450 kts 128°
2026-05-04 20:43 49.58947 6.12065 38965 ft 451 kts 128°
2026-05-04 20:44 49.55379 6.19997 38962 ft 450 kts 128°
2026-05-04 20:44 49.51829 6.27871 38949 ft 450 kts 128°
2026-05-04 20:45 49.48164 6.35647 38954 ft 447 kts 136°
2026-05-04 20:45 49.43358 6.41528 38964 ft 437 kts 154°
2026-05-04 20:46 49.37848 6.45345 38972 ft 434 kts 160°
2026-05-04 20:46 49.32303 6.48995 38966 ft 434 kts 159°
2026-05-04 20:47 49.26777 6.52702 38972 ft 434 kts 159°
2026-05-04 20:47 49.21276 6.56493 38982 ft 434 kts 159°
2026-05-04 20:48 49.15790 6.60283 38982 ft 434 kts 159°
2026-05-04 20:48 49.10294 6.64063 38968 ft 434 kts 159°
2026-05-04 20:49 49.04781 6.67838 38988 ft 434 kts 159°
2026-05-04 20:49 48.99281 6.71592 38988 ft 434 kts 159°
2026-05-04 20:50 48.93761 6.75351 38989 ft 435 kts 159°
2026-05-04 20:50 48.88239 6.79102 38990 ft 435 kts 159°
2026-05-04 20:51 48.82705 6.82852 38983 ft 435 kts 159°
2026-05-04 20:51 48.77170 6.86594 38991 ft 436 kts 159°
2026-05-04 20:52 48.71631 6.90330 38989 ft 436 kts 159°
2026-05-04 20:52 48.66088 6.94060 38988 ft 436 kts 159°
2026-05-04 20:53 48.60543 6.97781 38986 ft 436 kts 159°
2026-05-04 20:53 48.55171 7.01378 38993 ft 436 kts 159°
2026-05-04 20:54 48.49627 7.05081 38995 ft 436 kts 159°
2026-05-04 20:54 48.44081 7.08776 38995 ft 436 kts 159°
2026-05-04 20:55 48.38535 7.12464 38986 ft 436 kts 159°
2026-05-04 20:55 48.32987 7.16144 38996 ft 436 kts 159°
2026-05-04 20:56 48.27442 7.19812 38989 ft 436 kts 159°
2026-05-04 20:56 48.21890 7.23477 38989 ft 435 kts 159°
2026-05-04 20:57 48.16346 7.27129 38992 ft 435 kts 160°
2026-05-04 20:57 48.10801 7.30771 38990 ft 436 kts 160°
2026-05-04 20:58 48.05243 7.34413 38996 ft 436 kts 160°
2026-05-04 20:58 47.99696 7.38040 38994 ft 436 kts 160°
2026-05-04 20:59 47.94134 7.41668 38990 ft 437 kts 160°
2026-05-04 20:59 47.88556 7.45298 38993 ft 437 kts 160°
2026-05-04 21:00 47.82976 7.48923 38990 ft 438 kts 160°
2026-05-04 21:00 47.77391 7.52542 38993 ft 438 kts 160°
2026-05-04 21:01 47.71797 7.56158 38999 ft 438 kts 160°
2026-05-04 21:01 47.67113 7.59192 38983 ft 438 kts 160°
2026-05-04 21:02 47.61548 7.62793 38994 ft 438 kts 160°
2026-05-04 21:02 47.55945 7.66411 38992 ft 438 kts 160°
2026-05-04 21:03 47.50358 7.70009 38993 ft 437 kts 160°
2026-05-04 21:03 47.44791 7.73586 38995 ft 436 kts 160°
2026-05-04 21:04 47.39233 7.77149 38907 ft 437 kts 160°
2026-05-04 21:04 47.36419 7.78946 38409 ft 442 kts 160°
2026-05-04 21:04 47.33605 7.80745 37851 ft 439 kts 160°
2026-05-04 21:05 47.30824 7.82523 37505 ft 432 kts 161°
2026-05-04 21:05 47.28077 7.84278 37089 ft 428 kts 161°
2026-05-04 21:05 47.25367 7.86007 36700 ft 423 kts 161°
2026-05-04 21:05 47.22684 7.87716 36320 ft 418 kts 161°
2026-05-04 21:06 47.20016 7.89422 35791 ft 418 kts 161°
2026-05-04 21:06 47.17369 7.91118 35412 ft 414 kts 161°
2026-05-04 21:06 47.14736 7.92805 34994 ft 411 kts 161°
2026-05-04 21:06 47.12126 7.94476 34610 ft 407 kts 161°
2026-05-04 21:07 47.09537 7.96132 34218 ft 404 kts 162°
2026-05-04 21:07 47.06970 7.97770 33812 ft 401 kts 162°
2026-05-04 21:07 47.04422 7.99394 33401 ft 397 kts 162°
2026-05-04 21:07 47.02048 8.00906 33045 ft 393 kts 161°
2026-05-04 21:08 46.99561 8.02488 32670 ft 389 kts 161°
2026-05-04 21:08 46.97092 8.04057 32313 ft 385 kts 161°
2026-05-04 21:08 46.94645 8.05609 31944 ft 382 kts 161°
2026-05-04 21:08 46.92227 8.07142 31601 ft 378 kts 161°
2026-05-04 21:09 46.89826 8.08663 31243 ft 375 kts 161°
2026-05-04 21:09 46.87443 8.10170 30892 ft 371 kts 161°
2026-05-04 21:09 46.85084 8.11661 30553 ft 368 kts 161°
2026-05-04 21:09 46.82742 8.13139 30207 ft 365 kts 160°
2026-05-04 21:10 46.80431 8.14597 29831 ft 360 kts 161°
2026-05-04 21:10 46.78146 8.16039 29459 ft 355 kts 161°
2026-05-04 21:10 46.75922 8.17440 29128 ft 351 kts 161°
2026-05-04 21:10 46.73655 8.18866 28760 ft 349 kts 161°
2026-05-04 21:11 46.71437 8.20260 28425 ft 348 kts 161°
2026-05-04 21:11 46.69184 8.21669 28091 ft 358 kts 161°
2026-05-04 21:11 46.66898 8.23098 27697 ft 364 kts 160°
2026-05-04 21:11 46.64579 8.24552 27340 ft 362 kts 160°
2026-05-04 21:12 46.62275 8.26001 26997 ft 360 kts 160°
2026-05-04 21:12 46.59978 8.27440 26627 ft 359 kts 160°
2026-05-04 21:12 46.57691 8.28869 26278 ft 357 kts 161°
2026-05-04 21:12 46.55406 8.30296 25911 ft 356 kts 160°
2026-05-04 21:13 46.53140 8.31709 25570 ft 354 kts 160°
2026-05-04 21:13 46.50890 8.33112 25220 ft 352 kts 160°
2026-05-04 21:13 46.48652 8.34507 24857 ft 348 kts 160°
2026-05-04 21:13 46.46441 8.35884 24553 ft 343 kts 160°
2026-05-04 21:14 46.44255 8.37244 24214 ft 341 kts 160°
2026-05-04 21:14 46.42082 8.38593 23875 ft 339 kts 160°
2026-05-04 21:14 46.39926 8.39931 23520 ft 336 kts 160°
2026-05-04 21:14 46.37789 8.41257 23128 ft 333 kts 160°
2026-05-04 21:15 46.35671 8.42571 22766 ft 330 kts 160°
2026-05-04 21:15 46.33570 8.43871 22433 ft 327 kts 160°
2026-05-04 21:15 46.31485 8.45160 22086 ft 325 kts 160°
2026-05-04 21:15 46.29405 8.46445 21750 ft 324 kts 160°
2026-05-04 21:16 46.27348 8.47715 21428 ft 324 kts 160°
2026-05-04 21:16 46.25266 8.48998 21093 ft 326 kts 160°
2026-05-04 21:16 46.23166 8.50291 20724 ft 330 kts 160°
2026-05-04 21:16 46.21056 8.51593 20421 ft 330 kts 160°
2026-05-04 21:17 46.18940 8.52897 20047 ft 331 kts 160°
2026-05-04 21:17 46.16844 8.54185 19715 ft 330 kts 160°
2026-05-04 21:17 46.14753 8.55470 19371 ft 331 kts 160°
2026-05-04 21:17 46.12631 8.56772 19018 ft 331 kts 160°
2026-05-04 21:18 46.10509 8.58074 18672 ft 332 kts 160°
2026-05-04 21:18 46.08383 8.59377 18271 ft 332 kts 160°
2026-05-04 21:18 46.06270 8.60671 17897 ft 328 kts 160°
2026-05-04 21:18 46.04182 8.61950 17562 ft 324 kts 160°
2026-05-04 21:19 46.02116 8.63214 17211 ft 321 kts 160°
2026-05-04 21:19 46.00075 8.64461 16870 ft 319 kts 160°
2026-05-04 21:19 45.98078 8.65681 16534 ft 316 kts 160°
2026-05-04 21:19 45.96066 8.66908 16227 ft 311 kts 160°
2026-05-04 21:20 45.94080 8.68119 15887 ft 309 kts 160°
2026-05-04 21:20 45.92106 8.69322 15560 ft 307 kts 160°
2026-05-04 21:20 45.90142 8.70516 15229 ft 306 kts 160°
2026-05-04 21:20 45.88188 8.71704 14892 ft 304 kts 160°
2026-05-04 21:21 45.86240 8.72887 14581 ft 302 kts 160°
2026-05-04 21:21 45.84307 8.74061 14256 ft 302 kts 160°
2026-05-04 21:21 45.82381 8.75229 13931 ft 301 kts 160°
2026-05-04 21:21 45.80454 8.76397 13569 ft 299 kts 160°
2026-05-04 21:22 45.78543 8.77555 13230 ft 297 kts 160°
2026-05-04 21:22 45.76646 8.78703 12905 ft 295 kts 160°
2026-05-04 21:22 45.74766 8.79841 12584 ft 292 kts 160°
2026-05-04 21:22 45.72918 8.80959 12281 ft 289 kts 160°
2026-05-04 21:23 45.71071 8.82074 11966 ft 287 kts 160°
2026-05-04 21:23 45.69242 8.83178 11690 ft 284 kts 159°
2026-05-04 21:23 45.67426 8.84275 11396 ft 282 kts 159°
2026-05-04 21:23 45.65625 8.85360 11173 ft 277 kts 159°
2026-05-04 21:24 45.63876 8.86415 11057 ft 268 kts 159°
2026-05-04 21:24 45.62182 8.87434 10942 ft 260 kts 160°
2026-05-04 21:24 45.60474 8.88184 10676 ft 256 kts 170°
2026-05-04 21:24 45.58747 8.88622 10435 ft 254 kts 172°
2026-05-04 21:25 45.57007 8.89041 10170 ft 253 kts 171°
2026-05-04 21:25 45.55279 8.89480 9892 ft 251 kts 171°
2026-05-04 21:25 45.53566 8.89932 9590 ft 250 kts 170°
2026-05-04 21:25 45.51856 8.90391 9304 ft 249 kts 170°
2026-05-04 21:26 45.50154 8.90851 8963 ft 250 kts 170°
2026-05-04 21:26 45.48426 8.91320 8509 ft 256 kts 169°
2026-05-04 21:26 45.46683 8.91793 8030 ft 263 kts 169°
2026-05-04 21:26 45.44867 8.92286 7526 ft 269 kts 169°
2026-05-04 21:27 45.43038 8.92783 7009 ft 271 kts 169°
2026-05-04 21:27 45.41158 8.92851 6449 ft 272 kts 193°
2026-05-04 21:27 45.39486 8.91638 5957 ft 271 kts 221°
2026-05-04 21:27 45.38370 8.89550 5627 ft 264 kts 244°
2026-05-04 21:28 45.37853 8.87088 5369 ft 258 kts 257°
2026-05-04 21:28 45.37540 8.84627 5270 ft 246 kts 263°
2026-05-04 21:28 45.37830 8.82330 5138 ft 235 kts 300°
2026-05-04 21:28 45.39001 8.80864 5047 ft 221 kts 335°
2026-05-04 21:29 45.40383 8.80073 4918 ft 211 kts 339°
2026-05-04 21:29 45.41754 8.79408 4665 ft 206 kts 340°
2026-05-04 21:29 45.43118 8.78838 4382 ft 203 kts 345°
2026-05-04 21:29 45.44485 8.78400 4159 ft 200 kts 347°
2026-05-04 21:30 45.45843 8.78018 3896 ft 197 kts 348°
2026-05-04 21:30 45.47177 8.77654 3628 ft 193 kts 348°
2026-05-04 21:30 45.48487 8.77298 3382 ft 189 kts 348°
2026-05-04 21:30 45.49763 8.76952 3126 ft 185 kts 348°
2026-05-04 21:31 45.52205 8.76287 2657 ft 169 kts 348°
2026-05-04 21:31 45.53304 8.75988 2425 ft 155 kts 348°
2026-05-04 21:31 45.54323 8.75710 2210 ft 146 kts 348°
2026-05-04 21:32 45.55324 8.75436 2052 ft 148 kts 349°
2026-05-04 21:32 45.56334 8.75175 1949 ft 148 kts 350°
2026-05-04 21:32 45.57353 8.74913 1731 ft 150 kts 349°
2026-05-04 21:32 45.58373 8.74628 1502 ft 153 kts 347°
2026-05-04 21:33 45.59457 8.74324 1218 ft 159 kts 347°
2026-05-04 21:33 45.60540 8.74029 966 ft 156 kts 347°
2026-05-04 21:33 45.61586 8.73742 751 ft 150 kts 347°
2026-05-04 21:33 45.62542 8.73471 722 ft 121 kts 348°
2026-05-04 21:34 45.63222 8.73287 735 ft 77 kts 349°
2026-05-04 21:34 45.63612 8.73170 744 ft 42 kts 337°
2026-05-04 21:34 45.63820 8.72921 749 ft 37 kts 305°
2026-05-04 21:34 45.63937 8.72667 749 ft 22 kts 303°
2026-05-04 21:35 45.63947 8.72469 749 ft 20 kts 259°
2026-05-04 21:35 45.63922 8.72277 751 ft 19 kts 263°
2026-05-04 21:35 45.63914 8.72085 753 ft 20 kts 266°
2026-05-04 21:35 45.63879 8.71878 751 ft 23 kts 233°
2026-05-04 21:36 45.63744 8.71843 749 ft 21 kts 169°
2026-05-04 21:36 45.63601 8.71883 746 ft 22 kts 169°
2026-05-04 21:36 45.63442 8.71928 744 ft 25 kts 169°
2026-05-04 21:36 45.63265 8.71975 740 ft 26 kts 169°
2026-05-04 21:37 45.63094 8.72023 735 ft 24 kts 169°
2026-05-04 21:37 45.62995 8.71996 734 ft 12 kts 252°
2026-05-04 21:37 45.62977 8.71878 734 ft 12 kts 258°
2026-05-04 21:37 45.62960 8.71749 734 ft 14 kts 259°
2026-05-04 21:38 45.62939 8.71600 734 ft 11 kts 257°
2026-05-04 21:38 45.62893 8.71580 733 ft 8 kts 170°
2026-05-04 21:38 45.62871 8.71585 733 ft 0 kts 169°